BEE282 EGNS-EGLC

Flight info

Callsign BEE282
Flight time N/A
Altitude 19000
Route TIMIS Q39 NOMSU Q4 WAL L10 HON
Aircraft DH8D/M-SDE2E3FGRY/H

Departure

Time 2026-05-04 08:54
Airport Isle of Man Airport (EGNS)

Arrival

Time N/A
Airport London City Airport (EGLC)
Time Latitude Longitude Altitude Speed Heading
2026-05-04 08:35 54.08606 -4.63376 9 ft 0 kts 42°
2026-05-04 08:43 54.08607 -4.63376 9 ft 0 kts 42°
2026-05-04 08:46 54.08556 -4.63386 9 ft 0 kts 132°
2026-05-04 08:47 54.08549 -4.63372 9 ft 4 kts 132°
2026-05-04 08:47 54.08514 -4.63329 9 ft 8 kts 179°
2026-05-04 08:48 54.08452 -4.63385 9 ft 11 kts 204°
2026-05-04 08:48 54.08376 -4.63395 9 ft 10 kts 211°
2026-05-04 08:48 54.08350 -4.63499 9 ft 9 kts 259°
2026-05-04 08:48 54.08342 -4.63570 9 ft 0 kts 255°
2026-05-04 08:51 54.08321 -4.63662 9 ft 22 kts 241°
2026-05-04 08:51 54.08247 -4.63881 9 ft 13 kts 229°
2026-05-04 08:52 54.08153 -4.63868 9 ft 15 kts 126°
2026-05-04 08:52 54.08148 -4.63819 9 ft 0 kts 80°
2026-05-04 08:52 54.08178 -4.63583 9 ft 65 kts 76°
2026-05-04 08:52 54.08333 -4.62341 10 ft 142 kts 77°
2026-05-04 08:53 54.08530 -4.60598 463 ft 153 kts 79°
2026-05-04 08:54 54.00850 -4.60213 4427 ft 235 kts 179°
2026-05-04 08:55 53.99197 -4.60136 5074 ft 241 kts 177°
2026-05-04 08:55 53.97536 -4.59991 5771 ft 244 kts 176°
2026-05-04 08:55 53.95834 -4.59690 6508 ft 246 kts 166°
2026-05-04 08:55 53.94420 -4.58197 7156 ft 248 kts 130°
2026-05-04 08:57 53.87145 -4.40574 11328 ft 286 kts 123°
2026-05-04 09:01 53.70298 -3.99549 18931 ft 322 kts 123°
2026-05-04 09:01 53.69006 -3.96426 19030 ft 333 kts 123°
2026-05-04 09:01 53.67654 -3.93160 19049 ft 340 kts 123°
2026-05-04 09:01 53.66288 -3.89870 19048 ft 346 kts 123°
2026-05-04 09:02 53.64905 -3.86546 19042 ft 351 kts 123°
2026-05-04 09:02 53.63493 -3.83157 19041 ft 355 kts 123°
2026-05-04 09:02 53.62076 -3.79764 19048 ft 357 kts 123°
2026-05-04 09:02 53.60643 -3.76335 19052 ft 360 kts 123°
2026-05-04 09:03 53.59215 -3.72923 19056 ft 361 kts 123°
2026-05-04 09:03 53.57773 -3.69481 19058 ft 362 kts 123°
2026-05-04 09:03 53.56309 -3.65995 19061 ft 363 kts 123°
2026-05-04 09:03 53.54855 -3.62534 19057 ft 364 kts 123°
2026-05-04 09:04 53.53411 -3.59103 19055 ft 364 kts 123°
2026-05-04 09:04 53.51942 -3.55617 19052 ft 364 kts 123°
2026-05-04 09:04 53.50468 -3.52125 19053 ft 364 kts 123°
2026-05-04 09:04 53.49014 -3.48682 19052 ft 365 kts 123°
2026-05-04 09:05 53.47547 -3.45214 19053 ft 364 kts 123°
2026-05-04 09:05 53.46273 -3.41548 19057 ft 362 kts 113°
2026-05-04 09:05 53.45287 -3.37699 19044 ft 363 kts 111°
2026-05-04 09:05 53.44310 -3.33809 19046 ft 363 kts 112°
2026-05-04 09:06 53.43325 -3.29889 19055 ft 362 kts 112°
2026-05-04 09:07 53.33852 -3.05623 19040 ft 366 kts 137°
2026-05-04 09:08 53.31945 -3.02852 19045 ft 366 kts 137°
2026-05-04 09:08 53.30061 -3.00032 19034 ft 365 kts 134°
2026-05-04 09:08 53.28626 -2.96598 19071 ft 359 kts 116°
2026-05-04 09:08 53.27602 -2.92789 19055 ft 358 kts 111°
2026-05-04 09:09 53.26654 -2.88965 19048 ft 358 kts 111°
2026-05-04 09:09 53.25715 -2.85101 19048 ft 357 kts 111°
2026-05-04 09:09 53.24786 -2.81257 19047 ft 357 kts 111°
2026-05-04 09:09 53.23861 -2.77415 19050 ft 357 kts 111°
2026-05-04 09:10 53.22938 -2.73596 19048 ft 357 kts 111°
2026-05-04 09:10 53.22006 -2.69752 19047 ft 357 kts 110°
2026-05-04 09:10 53.21079 -2.65946 19047 ft 357 kts 111°
2026-05-04 09:10 53.20147 -2.62122 19039 ft 357 kts 111°
2026-05-04 09:11 53.19202 -2.58227 19041 ft 357 kts 111°
2026-05-04 09:11 53.18260 -2.54348 19040 ft 357 kts 110°
2026-05-04 09:11 53.17326 -2.50516 19038 ft 357 kts 111°
2026-05-04 09:11 53.16394 -2.46667 19035 ft 357 kts 111°
2026-05-04 09:12 53.15468 -2.42832 19036 ft 357 kts 111°
2026-05-04 09:12 53.14546 -2.39005 19031 ft 357 kts 110°
2026-05-04 09:14 53.05006 -2.16001 19019 ft 357 kts 146°
2026-05-04 09:14 53.02924 -2.13671 19020 ft 358 kts 146°
2026-05-04 09:14 53.00860 -2.11367 19021 ft 358 kts 146°
2026-05-04 09:14 52.98806 -2.09077 19025 ft 358 kts 146°
2026-05-04 09:15 52.96728 -2.06766 19025 ft 357 kts 146°
2026-05-04 09:15 52.94677 -2.04486 19024 ft 357 kts 146°
2026-05-04 09:15 52.92605 -2.02186 19022 ft 357 kts 146°
2026-05-04 09:15 52.90546 -1.99904 19023 ft 357 kts 146°
2026-05-04 09:17 52.73974 -1.81634 19024 ft 357 kts 147°
2026-05-04 09:18 52.71916 -1.79376 19027 ft 357 kts 147°
2026-05-04 09:18 52.69800 -1.77059 19029 ft 357 kts 146°
2026-05-04 09:18 52.67746 -1.74812 19026 ft 357 kts 146°
2026-05-04 09:18 52.65669 -1.72542 19026 ft 358 kts 146°
2026-05-04 09:19 52.63576 -1.70259 19027 ft 358 kts 147°
2026-05-04 09:19 52.61501 -1.67996 19028 ft 358 kts 147°
2026-05-04 09:19 52.59435 -1.65746 19027 ft 357 kts 147°
2026-05-04 09:19 52.57348 -1.63475 19023 ft 353 kts 147°
2026-05-04 09:20 52.55294 -1.61242 19025 ft 353 kts 147°
2026-05-04 09:20 52.53245 -1.59020 19025 ft 354 kts 147°
2026-05-04 09:20 52.51193 -1.56796 19026 ft 354 kts 147°
2026-05-04 09:20 52.49137 -1.54570 19022 ft 355 kts 147°
2026-05-04 09:21 52.47153 -1.52121 18990 ft 357 kts 136°
2026-05-04 09:21 52.45854 -1.48705 19048 ft 357 kts 113°
2026-05-04 09:21 52.44989 -1.44831 19032 ft 359 kts 109°
2026-05-04 09:21 52.44185 -1.40948 19019 ft 360 kts 109°
2026-05-04 09:22 52.43409 -1.37093 19020 ft 360 kts 108°
2026-05-04 09:22 52.42620 -1.33122 19017 ft 360 kts 109°
2026-05-04 09:22 52.41861 -1.29269 19019 ft 360 kts 109°
2026-05-04 09:22 52.41124 -1.25497 19014 ft 358 kts 109°
2026-05-04 09:23 52.40362 -1.21589 19013 ft 358 kts 109°
2026-05-04 09:23 52.39601 -1.17681 19014 ft 359 kts 109°
2026-05-04 09:23 52.38849 -1.13811 19014 ft 359 kts 109°
2026-05-04 09:23 52.38093 -1.09921 19012 ft 360 kts 109°
2026-05-04 09:25 52.32758 -0.82569 19010 ft 359 kts 109°
2026-05-04 09:25 52.31987 -0.78640 19011 ft 358 kts 109°
2026-05-04 09:26 52.31216 -0.74724 19012 ft 358 kts 109°
2026-05-04 09:26 52.30454 -0.70853 19013 ft 358 kts 109°
2026-05-04 09:26 52.29681 -0.66936 19013 ft 359 kts 109°
2026-05-04 09:26 52.28938 -0.63179 19013 ft 359 kts 109°
2026-05-04 09:27 52.28165 -0.59281 19014 ft 359 kts 109°
2026-05-04 09:27 52.27392 -0.55386 19016 ft 359 kts 109°
2026-05-04 09:27 52.26603 -0.51423 19012 ft 358 kts 109°
2026-05-04 09:27 52.25838 -0.47583 19014 ft 358 kts 109°
2026-05-04 09:28 52.25048 -0.43635 19009 ft 359 kts 109°
2026-05-04 09:28 52.24271 -0.39752 19013 ft 359 kts 109°
2026-05-04 09:28 52.23492 -0.35867 19015 ft 360 kts 109°
2026-05-04 09:28 52.22706 -0.31951 19010 ft 359 kts 110°
2026-05-04 09:29 52.21932 -0.28108 19022 ft 360 kts 110°
2026-05-04 09:29 52.21140 -0.24179 19013 ft 360 kts 110°
2026-05-04 09:29 52.20359 -0.20319 19008 ft 361 kts 110°
2026-05-04 09:29 52.19572 -0.16431 19016 ft 361 kts 110°
2026-05-04 09:30 52.18783 -0.12546 19012 ft 361 kts 110°
2026-05-04 09:30 52.17985 -0.08623 19016 ft 361 kts 110°
2026-05-04 09:30 52.17202 -0.04778 19006 ft 361 kts 110°
2026-05-04 09:30 52.16405 -0.00879 19010 ft 361 kts 110°
2026-05-04 09:31 52.15619 0.02969 19012 ft 361 kts 110°
2026-05-04 09:31 52.14822 0.06855 19012 ft 361 kts 110°
2026-05-04 09:31 52.14030 0.10710 19011 ft 360 kts 110°
2026-05-04 09:31 52.13258 0.14627 19002 ft 361 kts 107°
2026-05-04 09:32 52.12818 0.18663 19024 ft 362 kts 99°
2026-05-04 09:32 52.12494 0.22727 19025 ft 362 kts 98°
2026-05-04 09:34 52.06747 0.48433 18970 ft 349 kts 120°
2026-05-04 09:34 52.05953 0.50736 18771 ft 349 kts 120°